OneWeb SL0436

operational
NORAD ID: 51633 Int'l Des: 2022-012 Owner: ONEWEBN Country: UK Constellation: oneweb
LEOCIRCULARPOLARONEWEB_TYPE

关于 OneWeb SL0436

正在加载描述...

实时位置

正在加载3D地球...

即将过境

高度历史

Altitude vs Time

uPlot chart will show altitude changes over time

两行轨道根数

1 51633U 22012M 25307.98553300 -.00000007 00000-0 -52014-4 0 9990
2 51633 87.9136 50.6152 0001931 105.5788 254.5557 13.17651835184029
Epoch: Nov 3, 2025 • Age: 9 hours

当前状态

高度 1196.3 km
速度 7.26 km/s
星下点 5.47°N, 125.01°W
发射日期 Feb 10, 2022
运行时间 3.7 years
类型 internet

技术详情

分类 Payload
质量 148.00 kg
干质量 140.00 kg
总质量 148.00 kg
长度 1.30 m
直径 1.00 m
跨度 5.00 m
形状 Trapezoid+2 pan
制造商 ONEWUS
平台类型 ARROW
阶段状态 In Orbit
所有者/国家 ONEWEBN/UK

大型星座

Loading constellations...